Regional Weather Roundup
Issued by NWS

Home | Current Version | Previous Version | Graphics & Text | Print | Product List | Glossary Off
Versions: 1 2 3 4 5 6 7 8 9 10 11 12 13 14 15 16 17 18 19 20 21 22 23 24 25 26 27 28 29 30 31 32 33 34 35 36 37 38 39 40 41 42 43 44 45 46 47 48 49 50

000
ASUS43 KLSX 280610
RWRMO

WEATHER SUMMARY FOR MISSOURI
NATIONAL WEATHER SERVICE SPRINGFIELD MO
100 AM CDT SUN AUG 28 2016

NOTE: "FAIR" INDICATES FEW OR NO CLOUDS BELOW 12,000 FEET WITH NO
       SIGNIFICANT WEATHER AND/OR OBSTRUCTIONS TO VISIBILITY.
       CURRENT SKY AND/OR WEATHER CONDITIONS ARE NOT AVAILABLE FOR
       CHILLICOTHE AND FARMINGTON.

MOZ001>031-035>038-043-044-053-054-280700-
...NORTHERN AND WESTERN MISSOURI...

CITY           SKY/WX    TMP DP  RH WIND       PRES   REMARKS
KANSAS CTY INT PTCLDY    74  68  81 SE6       30.08R
6HR MIN TEMP:  72; 6HR MAX TEMP:  82; 6HR PCP:  0.05;

KANSAS C DTWN  CLEAR     74  70  87 NE5       30.06R
6HR MIN TEMP:  73; 6HR MAX TEMP:  80; 6HR PCP:  0.08;

LEE`S SUMMIT   CLEAR     77  71  82 S8        30.09R
6HR MIN TEMP:  76; 6HR MAX TEMP:  84;

ST JOSEPH      CLEAR     73  69  87 CALM      30.07S
6HR MIN TEMP:  72; 6HR MAX TEMP:  85;

KIRKSVILLE     CLEAR     72  70  93 CALM      30.10S
6HR MIN TEMP:  71; 6HR MAX TEMP:  80; 6HR PCP: TRACE;


$$
MOZ066>068-077>081-088>096-101>105-280700-
...SOUTHWEST MISSOURI...

CITY           SKY/WX    TMP DP  RH WIND       PRES   REMARKS
SPRINGFIELD    CLEAR     75  69  81 S7        30.10S
6HR MIN TEMP:  75; 6HR MAX TEMP:  83;

JOPLIN         CLEAR     74  71  91 SE3       30.09R
6HR MIN TEMP:  74; 6HR MAX TEMP:  86;

BRANSON        CLEAR     72  72 100 CALM      30.12S

$$
MOZ032>034-039>042-045>050-055>058-069>072-280700-
...CENTRAL MISSOURI...

CITY           SKY/WX    TMP DP  RH WIND       PRES   REMARKS
COLUMBIA       CLOUDY    74  73  97 S3        30.10S
6HR MIN TEMP:  74; 6HR MAX TEMP:  84;

JEFFERSON CITY CLOUDY    75  72  90 CALM      30.08S
6HR MIN TEMP:  74; 6HR MAX TEMP:  85;

ROLLA          PTCLDY    74  72  93 SE6       30.11S
6HR MIN TEMP:  72; 6HR MAX TEMP:  81; 6HR PCP:  0.24;

SEDALIA        CLEAR     74  70  87 SE5       30.10S
6HR MIN TEMP:  74; 6HR MAX TEMP:  86;

WHITEMAN AFB   CLEAR     74  74 100 S3        30.08R
OSAGE BEACH    CLEAR     72  71  97 S3        30.11S

$$
MOZ051-052-059>065-280700-
...EAST CENTRAL MISSOURI...

CITY           SKY/WX    TMP DP  RH WIND       PRES   REMARKS
ST LOUIS INTL  MOCLDY    77  71  82 E6        30.10F
6HR MIN TEMP:  77; 6HR MAX TEMP:  82;

SPIRIT OF STL  MOCLDY    75  74  96 CALM      30.08S
6HR MIN TEMP:  75; 6HR MAX TEMP:  83; 6HR PCP:  0.05;

ST CHARLES     CLOUDY    74  74 100 NE3       30.08F
6HR MIN TEMP:  73; 6HR MAX TEMP:  78; 6HR PCP:  0.41;


$$
MOZ072>076-082>087-097>100-106>115-280700-
...SOUTH CENTRAL AND SOUTHEAST MISSOURI...

CITY           SKY/WX    TMP DP  RH WIND       PRES   REMARKS
CAPE GIRARDEAU CLEAR     73  72  96 CALM      30.10R
6HR MIN TEMP:  73; 6HR MAX TEMP:  84;

FARMINGTON     CLEAR     72  70  93 CALM      30.13F
6HR MIN TEMP:  71; 6HR MAX TEMP:  83;

POPLAR BLUFF   CLEAR     73  72  96 CALM      30.09R
6HR MIN TEMP:  73; 6HR MAX TEMP:  84;

WEST PLAINS    CLEAR     70  67  90 CALM      30.14S FOG
6HR MIN TEMP:  70; 6HR MAX TEMP:  84;


$$




USA.gov is the U.S. government's official web portal to all federal, state and local government web resources and services.